Location: *
(43.9900°N, 3.4811°E)
Time: 13:49:33
(UTC+00:00)

Mayak - Pass Details

Date: 25 August 2019
Orbit: 581 x 603 km, 97.6° (Epoch: 20 September)

Event Time Altitude Azimuth Distance (km) Brightness Sun altitude
Rises 23:04:41 0° 4° (N) 2,833 3.2 -34.5°
Reaches altitude 10° 23:06:58 10° 356° (N) 1,923 2.2 -34.6°
Enters shadow 23:08:20 19° 345° (NNW) 1,436 1.4 -34.7°
